Regional Weather Roundup
Issued by NWS

Home | Current Version | Previous Version | Text Only | Print | Product List | Glossary On
Versions: 1 2 3 4 5 6 7 8 9 10 11 12 13 14 15 16 17 18 19 20 21 22 23 24 25 26 27 28 29 30 31 32 33 34 35 36 37 38 39 40 41 42 43 44 45 46 47 48 49 50
412
ASUS44 KLUB 280701
RWRTX
WEST TEXAS WEATHER ROUNDUP
NATIONAL WEATHER SERVICE LUBBOCK TX
200 AM CDT SUN MAY 28 2017

NOTE: "FAIR" INDICATES FEW OR NO CLOUDS BELOW 12,000 FEET WITH NO
SIGNIFICANT WEATHER AND/OR OBSTRUCTIONS TO VISIBILITY.

TXZ004-006>008-010-012-014-016-OKZ002-280800-
TEXAS PANHANDLE/OKLAHOMA PANHANDLE

CITY           SKY/WX    TMP DP  RH WIND       PRES   REMARKS
AMARILLO       CLEAR     53  48  83 N10       30.10F
BORGER         CLEAR     56  49  77 N5        30.10R
CANADIAN       CLEAR     58  52  78 NE5       30.04F
DALHART        CLEAR     55  46  71 N17       30.14S
DUMAS          MOCLDY    52  47  82 N16       30.11S
GUYMON         CLOUDY    55  51  86 NW17G25   30.11R
HEREFORD       CLEAR     56  48  74 NE13      30.12R
PAMPA          CLEAR     54  49  82 N10       30.08F
PERRYTON       CLEAR     56  50  79 N9        30.06R
$$

TXZ026-029-035-045-048-280800-
SOUTHERN PANHANDLE/SOUTH PLAINS/ROLLING PLAINS

CITY           SKY/WX    TMP DP  RH WIND       PRES   REMARKS
CHILDRESS      CLEAR     67  50  54 N26G37    30.00R
SEMINOLE       PTCLDY    67  16  13 W7        29.96R
LUBBOCK        CLEAR     63  49  60 N25G38    30.02R
PLAINVIEW      CLEAR     58  47  67 N25G40    30.04S
SNYDER         PTCLDY    77  42  29 NE15G25   29.94R
$$

TXZ052-054-060>062-072-078-127-140-154-169-280800-
PERMIAN BASIN/CONCHO VALLEY/BIG COUNTRY/EDWARDS PLATEAU

CITY           SKY/WX    TMP DP  RH WIND       PRES   REMARKS
ABILENE        CLEAR     84  70  62 SW17G24   29.81F
BIG SPRING     PTCLDY    71  58  65 SE6       29.92S
JUNCTION       CLEAR     80  74  81 S7        29.86S
MIDLAND        CLEAR     73  48  41 W8        29.92R
ODESSA         CLEAR     77  62  59 SW8       29.93S
SAN ANGELO     CLEAR     77  67  71 SW6       29.84F
SONORA         CLEAR     75  70  83 CALM      29.93R
SWEETWATER     PTCLDY    81  66  61 SW12      29.90R
WINK           CLOUDY    79  18  10 CALM      29.89R
$$

TXZ055-058-074-075-080-082-280800-
FAR WEST/SOUTHWEST MOUNTAINS/TRANS PECOS

CITY           SKY/WX    TMP DP  RH WIND       PRES   REMARKS
ALPINE         CLOUDY    77  43  30 CALM      30.09F
DRYDEN           N/A     79  71  76 NW3       29.86S
EL PASO        PTCLDY    80   4   5 NW8       29.99S
FORT STOCKTON  PTCLDY    78  63  59 CALM      29.93F
MARFA          PTCLDY    70  33  25 NW6       30.09R
PECOS          CLOUDY    76  29  17 CALM      29.91S
PRESIDIO       FAIR      88  44  21 N7        29.92S
$$

TXZ014-016-019-021>030-083-280800
TEXAS TECH WEST TEXAS MESONET/TEXAS PANHANDLE/NORTHERN SOUTH PLAINS

CITY           SKY/WX    TMP DP  RH WIND       PRES   REMARKS
ABERNATHY 5ENE   N/A     60  49  66 N28       30.04R
AMARILLO 9NNE    N/A     53  47  81 NW7       30.11R
AMARILLO 7SSE    N/A     54  47  76 N12       30.11S
AMHERST 1NE      N/A     58  47  66 N25G35    30.08R
BOOTLEG 11WNW    N/A     50  44  79 N13       30.18R
CANADIAN 6E      N/A     57  50  79 N5        30.02R
CAPROCK CYN SP   N/A     60  51  70 N14       30.05R
CHILDRESS 2NNE   N/A     66  50  57 N21       29.99R
CLARENDON 2WSW   N/A     58  48  67 N20G30    30.06R
CLAUDE 12SW      N/A     55  47  72 N20       30.08S
DIMMITT 2NE      N/A     55  46  73 N21       30.09F
FLOYDADA 2NNE    N/A     60  49  67 N22       30.03R
FRIONA 2NE       N/A     55  46  72 N17       30.13S
GOODLETT 3W      N/A     72  56  58 N18       29.95R
HART 3N          N/A     56  47  71 N25       30.08R
HEREFORD 2NW     N/A     54  45  70 NE12      30.12R
MCLEAN 1E        N/A     57  48  71 N18       30.04R
MEMPHIS 1NE      N/A     63  52  68 N23G32    30.01R
MULESHOE 2SSW    N/A     57  47  67 NE21      30.09S
OLTON 6S         N/A     57  47  69 N23       30.06R
PALO DURO SP     N/A     55  47  73 N12       30.10S
PAMPA 2E         N/A     53  48  82 N12       30.06F
PLAINVIEW 1S     N/A     59  49  70 N20G29    30.05R
SILVERTON 7ESE   N/A     58  48  69 N23       30.05S
TULIA 2ENE       N/A     57  48  73 N17       30.08S
TURKEY 2WSW      N/A     61  52  71 N23       30.04R
UMBARGER 3NNE    N/A     54  46  76 N9        30.12R
$$

TXZ033>036-039>041-045>048-280800
TEXAS TECH WEST TEXAS MESONET/SOUTH PLAINS

CITY           SKY/WX    TMP DP  RH WIND       PRES   REMARKS
AIKEN 3WSW       N/A     58  49  70 N26       30.06S
ANDREWS 2NE      N/A     80  10   7 W15       29.91F
ANTON 6SSW       N/A     60  49  65 N37       30.04R
BROWNFIELD 2S    N/A     73  51  47 NE22      29.97R
DENVR CTY 7WNW   N/A     70  23  16 N22G35    29.99R
GAIL 2ESE        N/A     68  31  25 NE13      29.93R
LAMESA 2SE       N/A     71  15  12 W10       29.91S
LEVELLAND 4S     N/A     62  47  57 N35G44    30.03R
LUBBOCK 3WNW     N/A     64  48  56 N23G33    30.03R
MORTON 1ENE      N/A     60  46  59 N28       30.06R
ODONNELL 1N      N/A     65  13  13 NE7       29.95R
PLAINS 3N        N/A     69  48  47 N14       30.03R
RALLS 1SE        N/A     65  51  60 N25       30.01R
REESE CENTER     N/A     62  49  61 N25       30.02R
SEAGRAVES 1SW    N/A     61  17  18 NW14      29.96R
SEMINOLE 2NNE    N/A     65  14  13 W8        29.94S
SLATON 2NE       N/A     71  56  60 N21G35    29.99R
SNYDER 3E        N/A     78  56  46 N22G33    29.92R
SUNDOWN 8SW      N/A     64  49  59 N30G40    30.03R
TAHOKA 3NNE      N/A     71  54  56 N17       29.98R
WOLFFORTH 6SSW   N/A     69  53  57 N32       30.00R
$$

TXZ031-032-036>038-042>044-280800-
TEXAS TECH WEST TEXAS MESONET/ROLLING PLAINS

CITY           SKY/WX    TMP DP  RH WIND       PRES   REMARKS
ASPERMONT 3NE    N/A     76  62  60 N9        29.91R
FLUVANNA 3WNW    N/A     74  53  47 NE15      29.96R
GRAHAM 5SSW      N/A     73  53  48 NE21      29.94R
GUTHRIE 10WSW    N/A     74  59  58 N21G31    29.92R
HASKELL 1NW      N/A     78  61  55 N28       29.85R
JAYTON 1SSE      N/A     75  60  58 N16G28    29.92R
KNOX CITY 3NW    N/A     78  60  54 N21       29.89R
LK A HENRY 1NW   N/A     75  55  50 NE15      29.94R
NORTHFIELD 1S    N/A     65  50  59 N17       30.02R
ODELL 4ENE       N/A     74  61  63 N18       29.92R
PADUCAH 10SW     N/A     72  57  60 N24       29.96R
POST 1NE         N/A     74  56  54 N16       29.95R
RRING SPRGS 3N   N/A     65  53  65 N24       30.00R
SEYMOUR 3NW      N/A     77  61  58 N24       29.85R
SPUR 1W          N/A     73  57  56 NE23      29.92R
WEINERT 2NNE     N/A     77  63  61 N20       29.87R
WHITE RVR 6NE    N/A     71  55  56 N28G41    29.95R
$$

TXZ052-054-060>062-072-078-127-140-154-169-280800-
TEXAS TECH WEST TEXAS MESONET/PERMIAN BASIN/
CONCHO VALLEY/BIG COUNTRY/EDWARDS PLATEAU

CITY           SKY/WX    TMP DP  RH WIND       PRES   REMARKS
COYANOSA 2N      N/A     80  57  45 S6        29.90S
JUNCTION 1SSW    N/A     78  74  86 S2        29.87S
MERTZON 3NNE     N/A     77  70  78 S6        29.88F
SAN ANGELO 7NW   N/A     81  67  61 SW2       29.85F
STRLNG CT 4WSW   N/A     80  69  70 S9        29.89R
ST LAWRNCE 5SW   N/A     74  62  65 S5        29.91S
SWEETWATR 11SW   N/A     77  68  73 SW5       29.90R
WALL 1E          N/A     79  69  72 W6        29.86S
$$

TXZ055-058-074-075-080-082-280800-
TEXAS TECH WEST TEXAS MESONET/FAR WEST/SOUTHWEST MOUNTAINS/TRANS PECOS

CITY           SKY/WX    TMP DP  RH WIND       PRES   REMARKS
PRSMN GAP BBNP   N/A     87  56  34 E6        29.90F
GUADLPE MTN NP   N/A     62  14  15 W3        30.13S
$$




USA.gov is the U.S. government's official web portal to all federal, state and local government web resources and services.